OK,87,33,618,87,2014-10-01T01:40:00,0,28071945,180952
OK,87,33,618,87,2014-10-01T01:45:00,0,28072388,180952
OK,87,33,618,87,2014-10-01T01:50:00,0,28072837,180952
OK,87,33,618,87,2014-10-01T01:55:00,0,28073284,180952
OK,87,33,618,87,2014-10-01T02:00:00,0,28073732,180952
OK,87,33,618,87,2014-10-01T02:05:00,0,28074050,180952
OK,87,33,618,87,2014-10-01T02:10:00,0,28074499,180952
OK,87,33,618,87,2014-10-01T02:15:00,0,28074939,180952
OK,87,33,618,87,2014-10-01T02:20:00,0,28075388,180952
OK,87,33,618,87,2014-10-01T02:25:00,0,28075837,180952
OK,87,33,618,87,2014-10-01T02:30:00,0,28076220,180952
OK,87,33,618,87,2014-10-01T02:35:00,0,28076669,180952
OK,87,33,618,87,2014-10-01T02:40:00,0,28077118,180952
OK,87,33,618,87,2014-10-01T02:45:00,0,28077567,180952
OK,87,33,618,87,2014-10-01T02:50:00,0,28077970,180952
OK,87,33,618,87,2014-10-01T02:55:00,0,28078419,180952
OK,87,33,618,87,2014-10-01T03:00:00,0,28078864,180952
OK,87,33,618,87,2014-10-01T03:05:00,0,28079312,180952
OK,87,33,618,87,2014-10-01T03:10:00,0,28079755,180952
OK,87,33,618,87,2014-10-01T03:15:00,0,28080204,180952
OK,87,33,618,87,2014-10-01T03:20:00,0,28080538,180952
OK,87,33,618,87,2014-10-01T03:25:00,0,28080987,180952
OK,87,33,618,87,2014-10-01T03:30:00,0,28081436,180952
OK,87,33,618,87,2014-10-01T03:35:00,0,28081883,180952
OK,87,33,618,87,2014-10-01T03:40:00,0,28082332,180952
OK,87,33,618,87,2014-10-01T03:45:00,0,28082765,180952
OK,87,33,618,87,2014-10-01T03:50:00,0,28083197,180952
OK,87,33,618,87,2014-10-01T03:55:00,0,28083646,180952
OK,87,33,618,87,2014-10-01T04:00:00,0,28084095,180952
OK,87,33,618,87,2014-10-01T04:05:00,0,28084536,180952
OK,87,33,618,87,2014-10-01T04:10:00,0,28084961,180952
OK,87,33,618,87,2014-10-01T04:15:00,0,28085410,180952
OK,87,33,618,87,2014-10-01T04:20:00,0,28085855,180952
OK,87,33,618,87,2014-10-01T04:25:00,0,28086304,180952
OK,87,33,618,87,2014-10-01T04:30:00,0,28086746,180952
OK,87,33,618,87,2014-10-01T04:35:00,0,28087195,180952
OK,87,33,618,87,2014-10-01T04:40:00,0,28087640,180952
OK,87,33,618,87,2014-10-01T04:45:00,0,28088089,180952
OK,87,33,618,87,2014-10-01T04:50:00,0,28088513,180952
OK,87,33,618,87,2014-10-01T04:55:00,0,28088962,180952
OK,87,33,618,87,2014-10-01T05:00:00,0,28089392,180952
OK,87,33,618,87,2014-10-01T05:05:00,0,28089841,180952
OK,87,33,618,87,2014-10-01T05:10:00,0,28090290,180952
OK,87,33,618,87,2014-10-01T05:15:00,0,28090634,180952
OK,87,33,618,87,2014-10-01T05:20:00,0,28091083,180952
OK,84,34,618,84,2014-10-01T05:25:00,2,28091532,180952
OK,80,36,618,80,2014-10-01T05:30:00,2,28091949,180952
OK,47,61,618,47,2014-10-01T05:35:00,1,28092398,180952
OK,65,44,618,65,2014-10-01T05:40:00,1,28092842,180952
OK,65,44,618,65,2014-10-01T05:45:00,0,28093283,180952
OK,65,44,618,65,2014-10-01T05:50:00,0,28093714,180952
OK,65,44,618,65,2014-10-01T05:55:00,0,28094163,180952
OK,65,44,618,65,2014-10-01T06:00:00,0,28094574,180952
OK,95,30,618,95,2014-10-01T06:05:00,2,28095019,180952
OK,95,30,618,95,2014-10-01T06:10:00,0,28095466,180952
OK,97,29,618,97,2014-10-01T06:15:00,1,28095915,180952
OK,76,37,618,76,2014-10-01T06:20:00,2,28096328,180952
OK,56,51,618,56,2014-10-01T06:25:00,0,28096777,180952
OK,56,51,618,56,2014-10-01T06:30:00,0,28097211,180952
OK,64,45,618,64,2014-10-01T06:35:00,1,28097660,180952
OK,86,33,618,86,2014-10-01T06:40:00,2,28098109,180952
OK,108,26,618,108,2014-10-01T06:45:00,1,28098546,180952
OK,107,26,618,107,2014-10-01T06:50:00,1,28098990,180952
OK,79,36,618,79,2014-10-01T06:55:00,2,28099438,180952
OK,71,40,618,71,2014-10-01T07:00:00,3,28099781,180952
OK,71,40,618,71,2014-10-01T07:05:00,1,28100230,180952
OK,97,29,618,97,2014-10-01T07:10:00,2,28100537,180952
OK,97,29,618,97,2014-10-01T07:15:00,2,28100986,180952
OK,97,29,618,97,2014-10-01T07:20:00,0,28101357,180952
OK,97,29,618,97,2014-10-01T07:25:00,0,28101806,180952
OK,97,29,618,97,2014-10-01T07:30:00,0,28102242,180952
OK,85,33,618,85,2014-10-01T07:35:00,1,28102691,180952
OK,85,33,618,85,2014-10-01T07:40:00,0,28103119,180952
OK,85,33,618,85,2014-10-01T07:45:00,0,28103565,180952
OK,81,35,618,81,2014-10-01T07:50:00,2,28104010,180952
OK,81,35,618,81,2014-10-01T07:55:00,2,28104455,180952
OK,81,35,618,81,2014-10-01T08:00:00,0,28104896,180952
OK,76,37,618,76,2014-10-01T08:05:00,1,28105341,180952
OK,84,34,618,84,2014-10-01T08:10:00,1,28105781,180952
OK,84,34,618,84,2014-10-01T08:15:00,1,28106230,180952
OK,71,40,618,71,2014-10-01T08:20:00,1,28106667,180952
OK,75,38,618,75,2014-10-01T08:25:00,4,28107073,180952
OK,65,44,618,65,2014-10-01T08:30:00,2,28107505,180952
OK,80,36,618,80,2014-10-01T08:35:00,0,28107954,180952
OK,80,36,618,80,2014-10-01T08:40:00,0,28108393,180952
OK,80,36,618,80,2014-10-01T08:45:00,0,28108842,180952
OK,80,36,618,80,2014-10-01T08:50:00,0,28109270,180952
OK,80,36,618,80,2014-10-01T08:55:00,0,28109719,180952
OK,80,36,618,80,2014-10-01T09:00:00,0,28110062,180952
OK,78,36,618,78,2014-10-01T09:05:00,1,28110511,180952
OK,78,36,618,78,2014-10-01T09:10:00,0,28110934,180952
OK,78,36,618,78,2014-10-01T09:15:00,0,28111383,180952
OK,72,40,618,72,2014-10-01T09:20:00,1,28111812,180952
OK,72,40,618,72,2014-10-01T09:25:00,1,28112261,180952
OK,72,40,618,72,2014-10-01T09:30:00,0,28112602,180952
OK,85,33,618,85,2014-10-01T09:35:00,1,28113051,180952
OK,85,33,618,85,2014-10-01T09:40:00,1,28113475,180952
OK,85,33,618,85,2014-10-01T09:45:00,0,28113924,180952
OK,85,33,618,85,2014-10-01T09:50:00,0,28114356,180952
OK,126,22,618,126,2014-10-01T09:55:00,2,28114805,180952
OK,68,42,618,68,2014-10-01T10:00:00,1,28115159,180952
OK,75,38,618,75,2014-10-01T10:05:00,1,28115608,180952
OK,75,38,618,75,2014-10-01T10:10:00,1,28116020,180952
OK,75,38,618,75,2014-10-01T10:15:00,0,28116469,180952
OK,79,36,618,79,2014-10-01T10:20:00,1,28116877,180952
OK,96,30,618,96,2014-10-01T10:25:00,2,28117326,180952
OK,96,30,618,96,2014-10-01T10:30:00,2,28117751,180952
OK,94,30,618,94,2014-10-01T10:35:00,2,28118200,180952
OK,80,36,618,80,2014-10-01T10:40:00,2,28118645,180952
OK,106,27,618,106,2014-10-01T10:45:00,1,28119092,180952
OK,106,27,618,106,2014-10-01T10:50:00,0,28119536,180952
OK,106,27,618,106,2014-10-01T10:55:00,0,28119984,180952
OK,106,27,618,106,2014-10-01T11:00:00,0,28120432,180952
OK,72,40,618,72,2014-10-01T11:05:00,1,28120881,180952
OK,72,40,618,72,2014-10-01T11:10:00,0,28121264,180952
OK,89,32,618,89,2014-10-01T11:15:00,1,28121713,180952
OK,91,31,618,91,2014-10-01T11:20:00,1,28122151,180952
OK,91,31,618,91,2014-10-01T11:25:00,1,28122600,180952
OK,90,32,618,90,2014-10-01T11:30:00,1,28123041,180952
OK,87,33,618,87,2014-10-01T11:35:00,2,28123490,180952
OK,85,33,618,85,2014-10-01T11:40:00,0,28123922,180952
OK,85,33,618,85,2014-10-01T11:45:00,0,28124371,180952
OK,82,35,618,82,2014-10-01T11:50:00,1,28124773,180952
OK,91,31,618,91,2014-10-01T11:55:00,2,28125222,180952
OK,92,31,618,92,2014-10-01T12:00:00,2,28125651,180952
OK,89,32,618,89,2014-10-01T12:05:00,3,28126100,180952
OK,89,32,618,89,2014-10-01T12:10:00,1,28126452,180952
OK,44,65,618,44,2014-10-01T12:15:00,1,28126901,180952
OK,49,58,618,49,2014-10-01T12:20:00,2,28127350,180952
OK,87,33,618,87,2014-10-01T12:25:00,1,28127799,180952
OK,87,33,618,87,2014-10-01T12:30:00,0,28128227,180952
OK,87,33,618,87,2014-10-01T12:35:00,0,28128676,180952
OK,87,33,618,87,2014-10-01T12:40:00,0,28129111,180952
OK,87,33,618,87,2014-10-01T12:45:00,0,28129560,180952
OK,87,33,618,87,2014-10-01T12:50:00,0,28129994,180952
OK,87,33,618,87,2014-10-01T12:55:00,0,28130443,180952
OK,87,33,618,87,2014-10-01T13:00:00,0,28130871,180952
OK,109,26,618,109,2014-10-01T13:05:00,1,28131320,180952
OK,109,26,618,109,2014-10-01T13:10:00,0,28131757,180952
OK,115,25,618,115,2014-10-01T13:15:00,1,28132206,180952
OK,115,25,618,115,2014-10-01T13:20:00,0,28132644,180952
OK,56,51,618,56,2014-10-01T13:25:00,1,28133091,180952
OK,95,30,618,95,2014-10-01T13:30:00,1,28133529,180952
OK,95,30,618,95,2014-10-01T13:35:00,3,28133978,180952
OK,81,35,618,81,2014-10-01T13:40:00,2,28134417,180952
OK,100,28,618,100,2014-10-01T13:45:00,3,28134866,180952
OK,100,28,618,100,2014-10-01T13:50:00,4,28135285,180952
OK,115,25,618,115,2014-10-01T13:55:00,2,28135734,180952
OK,75,38,618,75,2014-10-01T14:00:00,3,28136171,180952
OK,53,54,618,53,2014-10-01T14:05:00,1,28136620,180952
OK,53,54,618,53,2014-10-01T14:10:00,0,28137060,180952
OK,53,54,618,53,2014-10-01T14:15:00,0,28137509,180952
OK,53,54,618,53,2014-10-01T14:20:00,0,28137943,180952
OK,53,54,618,53,2014-10-01T14:25:00,0,28138392,180952
OK,53,54,618,53,2014-10-01T14:30:00,0,28138820,180952
OK,53,54,618,53,2014-10-01T14:35:00,0,28139269,180952
OK,99,29,618,99,2014-10-01T14:40:00,1,28139680,180952
OK,99,29,618,99,2014-10-01T14:45:00,0,28140129,180952
OK,99,29,618,99,2014-10-01T14:50:00,0,28140571,180952
OK,90,32,618,90,2014-10-01T14:55:00,1,28141020,180952
OK,90,32,618,90,2014-10-01T15:00:00,1,28141446,180952
OK,90,32,618,90,2014-10-01T15:05:00,0,28141895,180952
OK,90,32,618,90,2014-10-01T15:10:00,0,28142323,180952
OK,86,33,618,86,2014-10-01T15:15:00,3,28142772,180952
OK,91,31,618,91,2014-10-01T15:20:00,2,28143199,180952
OK,96,30,618,96,2014-10-01T15:25:00,0,28143648,180952
OK,79,36,618,79,2014-10-01T15:30:00,1,28144096,180952
OK,79,36,618,79,2014-10-01T15:35:00,1,28144545,180952
OK,79,36,618,79,2014-10-01T15:40:00,0,28144966,180952
OK,79,36,618,79,2014-10-01T15:45:00,0,28145380,180952
OK,79,36,618,79,2014-10-01T15:50:00,0,28145829,180952
OK,79,36,618,79,2014-10-01T15:55:00,0,28146278,180952
OK,79,36,618,79,2014-10-01T16:00:00,0,28146727,180952
OK,79,36,618,79,2014-10-01T16:05:00,0,28147135,180952
OK,79,36,618,79,2014-10-01T16:10:00,0,28147579,180952
OK,79,36,618,79,2014-10-01T16:15:00,0,28148028,180952
OK,79,36,618,79,2014-10-01T16:20:00,0,28148429,180952
OK,79,36,618,79,2014-10-01T16:25:00,0,28148878,180952
OK,83,34,618,83,2014-10-01T16:30:00,1,28149317,180952
OK,83,34,618,83,2014-10-01T16:35:00,1,28149766,180952
OK,83,34,618,83,2014-10-01T16:40:00,0,28150192,180952
OK,83,34,618,83,2014-10-01T16:45:00,0,28150641,180952
OK,83,34,618,83,2014-10-01T16:50:00,0,28151059,180952
OK,74,38,618,74,2014-10-01T16:55:00,1,28151508,180952
OK,98,29,618,98,2014-10-01T17:05:00,0,28151957,180952
OK,98,29,618,98,2014-10-01T17:10:00,0,28152406,180952
OK,98,29,618,98,2014-10-01T17:15:00,0,28152852,180952
OK,98,29,618,98,2014-10-01T17:20:00,0,28153299,180952
OK,98,29,618,98,2014-10-01T17:25:00,0,28153748,180952
OK,98,29,618,98,2014-10-01T17:30:00,0,28154158,180952
OK,98,29,618,98,2014-10-01T17:35:00,0,28154607,180952
OK,82,35,618,82,2014-10-01T17:40:00,1,28155049,180952
OK,82,35,618,82,2014-10-01T17:45:00,1,28155497,180952
OK,82,35,618,82,2014-10-01T17:50:00,0,28155915,180952
OK,82,35,618,82,2014-10-01T17:55:00,0,28156364,180952
OK,82,35,618,82,2014-10-01T18:00:00,0,28156812,180952
OK,82,35,618,82,2014-10-01T18:05:00,0,28157251,180952
OK,82,35,618,82,2014-10-01T18:10:00,0,28157681,180952
OK,88,32,618,88,2014-10-01T18:15:00,1,28158129,180952
OK,88,32,618,88,2014-10-01T18:20:00,0,28158573,180952
OK,88,32,618,88,2014-10-01T18:25:00,0,28159019,180952
OK,88,32,618,88,2014-10-01T18:30:00,0,28159465,180952
OK,88,32,618,88,2014-10-01T18:35:00,0,28159800,180952
OK,88,32,618,88,2014-10-01T18:40:00,0,28160249,180952
OK,88,32,618,88,2014-10-01T18:45:00,0,28160698,180952
OK,88,32,618,88,2014-10-01T18:50:00,0,28161136,180952
OK,88,32,618,88,2014-10-01T18:55:00,0,28161585,180952
OK,88,32,618,88,2014-10-01T19:00:00,0,28162002,180952
OK,88,32,618,88,2014-10-01T19:05:00,0,28162451,180952
OK,87,33,618,87,2014-10-01T19:10:00,1,28162845,180952
OK,87,33,618,87,2014-10-01T19:15:00,0,28163284,180952
OK,87,33,618,87,2014-10-01T19:20:00,0,28163732,180952
OK,87,33,618,87,2014-10-01T19:25:00,0,28164181,180952
OK,83,34,618,83,2014-10-01T19:30:00,1,28164612,180952
OK,80,36,618,80,2014-10-01T19:35:00,1,28165061,180952
OK,80,36,618,80,2014-10-01T19:40:00,1,28165486,180952
OK,80,36,618,80,2014-10-01T19:45:00,0,28165934,180952
OK,80,36,618,80,2014-10-01T19:50:00,0,28166375,180952
OK,80,36,618,80,2014-10-01T19:55:00,0,28166737,180952
OK,80,36,618,80,2014-10-01T20:00:00,0,28167186,180952
OK,80,36,618,80,2014-10-01T20:05:00,0,28167615,180952
OK,80,36,618,80,2014-10-01T20:10:00,0,28168048,180952
OK,80,36,618,80,2014-10-01T20:15:00,0,28168497,180952
OK,80,36,618,80,2014-10-01T20:20:00,0,28168942,180952
OK,80,36,618,80,2014-10-01T20:25:00,1,28169391,180952
OK,80,36,618,80,2014-10-01T20:30:00,0,28169839,180952
OK,80,36,618,80,2014-10-01T20:35:00,0,28170265,180952
OK,80,36,618,80,2014-10-01T20:40:00,0,28170710,180952
OK,80,36,618,80,2014-10-01T20:45:00,0,28171158,180952
OK,80,36,618,80,2014-10-01T20:50:00,0,28171595,180952
OK,80,36,618,80,2014-10-01T20:55:00,0,28172041,180952
OK,80,36,618,80,2014-10-01T21:00:00,0,28172489,180952
OK,80,36,618,80,2014-10-01T21:05:00,0,28172935,180952
OK,80,36,618,80,2014-10-01T21:10:00,0,28173381,180952
OK,80,36,618,80,2014-10-01T21:15:00,0,28173830,180952
OK,80,36,618,80,2014-10-01T21:20:00,0,28174271,180952
OK,80,36,618,80,2014-10-01T21:25:00,0,28174720,180952
OK,80,36,618,80,2014-10-01T21:30:00,0,28175146,180952
OK,80,36,618,80,2014-10-01T21:35:00,0,28175542,180952
OK,80,36,618,80,2014-10-01T21:40:00,0,28175991,180952
OK,80,36,618,80,2014-10-01T21:45:00,0,28176440,180952
OK,80,36,618,80,2014-10-01T21:50:00,0,28176889,180952
OK,80,36,618,80,2014-10-01T21:55:00,0,28177245,180952
OK,80,36,618,80,2014-10-01T22:00:00,0,28177685,180952
OK,80,36,618,80,2014-10-01T22:05:00,0,28178131,180952
OK,80,36,618,80,2014-10-01T22:10:00,0,28178580,180952
OK,80,36,618,80,2014-10-01T22:15:00,0,28179027,180952
OK,80,36,618,80,2014-10-01T22:20:00,0,28179461,180952
OK,80,36,618,80,2014-10-01T22:25:00,0,28179904,180952
OK,80,36,618,80,2014-10-01T22:30:00,0,28180351,180952
OK,80,36,618,80,2014-10-01T22:35:00,0,28180749,180952
OK,80,36,618,80,2014-10-01T22:40:00,0,28181198,180952
OK,80,36,618,80,2014-10-01T22:45:00,0,28181622,180952
OK,80,36,618,80,2014-10-01T22:50:00,0,28182070,180952
OK,57,50,618,57,2014-10-01T22:55:00,1,28182517,180952
OK,57,50,618,57,2014-10-01T23:00:00,0,28182966,180952
OK,57,50,618,57,2014-10-01T23:05:00,0,28183383,180952
OK,57,50,618,57,2014-10-01T23:10:00,0,28183816,180952
OK,57,50,618,57,2014-10-01T23:15:00,0,28184261,180952
OK,57,50,618,57,2014-10-01T23:20:00,0,28184710,180952
OK,57,50,618,57,2014-10-01T23:25:00,0,28185145,180952
OK,57,50,618,57,2014-10-01T23:30:00,0,28185593,180952
OK,57,50,618,57,2014-10-01T23:35:00,0,28186024,180952
OK,57,50,618,57,2014-10-01T23:40:00,0,28186416,180952
OK,57,50,618,57,2014-10-01T23:45:00,0,28186865,180952
OK,57,50,618,57,2014-10-01T23:50:00,0,28187263,180952
OK,57,50,618,57,2014-10-01T23:55:00,0,28187705,180952
OK,57,50,618,57,2014-10-02T00:00:00,0,28188154,180952
OK,57,50,618,57,2014-10-02T00:05:00,0,28188595,180952
OK,57,50,618,57,2014-10-02T00:10:00,0,28189031,180952
OK,57,50,618,57,2014-10-02T00:15:00,0,28189480,180952
OK,57,50,618,57,2014-10-02T00:20:00,0,28189902,180952
OK,57,50,618,57,2014-10-02T00:30:00,0,28190704,180952
OK,57,50,618,57,2014-10-02T00:35:00,0,28191153,180952
OK,57,50,618,57,2014-10-02T00:40:00,0,28191602,180952
OK,57,50,618,57,2014-10-02T00:45:00,0,28191908,180952
OK,57,50,618,57,2014-10-02T00:50:00,0,28192357,180952
OK,57,50,618,57,2014-10-02T00:55:00,0,28192790,180952
OK,57,50,618,57,2014-10-02T01:05:00,0,28193601,180952
OK,57,50,618,57,2014-10-02T01:10:00,0,28194050,180952
OK,57,50,618,57,2014-10-02T01:15:00,0,28194499,180952
OK,57,50,618,57,2014-10-02T01:20:00,0,28194947,180952
OK,57,50,618,57,2014-10-02T01:25:00,0,28195184,180952
OK,57,50,618,57,2014-10-02T01:30:00,0,28195633,180952
OK,57,50,618,57,2014-10-02T01:35:00,0,28196082,180952
OK,57,50,618,57,2014-10-02T01:40:00,0,28196366,180952
OK,57,50,618,57,2014-10-02T01:45:00,0,28196815,180952
OK,57,50,618,57,2014-10-02T01:50:00,0,28197238,180952
OK,57,50,618,57,2014-10-02T01:55:00,0,28197687,180952
OK,57,50,618,57,2014-10-02T02:00:00,0,28198135,180952
OK,57,50,618,57,2014-10-02T02:05:00,0,28198583,180952
OK,57,50,618,57,2014-10-02T02:10:00,0,28199032,180952
OK,57,50,618,57,2014-10-02T02:15:00,0,28199404,180952
OK,57,50,618,57,2014-10-02T02:20:00,0,28199846,180952
OK,57,50,618,57,2014-10-02T02:25:00,0,28200288,180952
OK,57,50,618,57,2014-10-02T02:30:00,0,28200731,180952
OK,57,50,618,57,2014-10-02T02:35:00,0,28201180,180952
OK,57,50,618,57,2014-10-02T02:45:00,0,28201611,180952
OK,57,50,618,57,2014-10-02T02:50:00,0,28202060,180952
OK,57,50,618,57,2014-10-02T02:55:00,0,28202509,180952
OK,57,50,618,57,2014-10-02T03:00:00,0,28202951,180952
OK,57,50,618,57,2014-10-02T03:05:00,0,28203399,180952
OK,57,50,618,57,2014-10-02T03:15:00,0,28203834,180952
OK,57,50,618,57,2014-10-02T03:30:00,0,28204283,180952
OK,57,50,618,57,2014-10-02T03:35:00,0,28204732,180952
OK,0,0,618,0,2014-10-02T03:40:00,0,28205181,180952
OK,57,50,618,57,2014-10-02T03:45:00,0,28205609,180952
OK,57,50,618,57,2014-10-02T03:55:00,0,28206439,180952
OK,57,50,618,57,2014-10-02T04:00:00,0,28206888,180952
OK,57,50,618,57,2014-10-02T04:05:00,0,28207337,180952
OK,57,50,618,57,2014-10-02T04:10:00,0,28207756,180952
OK,57,50,618,57,2014-10-02T04:15:00,0,28208205,180952
OK,57,50,618,57,2014-10-02T04:20:00,0,28208632,180952
OK,57,50,618,57,2014-10-02T04:25:00,0,28209081,180952
OK,57,50,618,57,2014-10-02T04:30:00,0,28209519,180952
OK,57,50,618,57,2014-10-02T04:35:00,0,28209968,180952
OK,85,33,618,85,2014-10-02T04:40:00,1,28210391,180952
OK,85,33,618,85,2014-10-02T04:45:00,0,28210840,180952
OK,85,33,618,85,2014-10-02T04:50:00,0,28211265,180952
OK,85,33,618,85,2014-10-02T04:55:00,0,28211709,180952
OK,85,33,618,85,2014-10-02T05:00:00,0,28212087,180952
OK,85,33,618,85,2014-10-02T05:05:00,0,28212536,180952
OK,85,33,618,85,2014-10-02T05:10:00,0,28212965,180952
OK,83,34,618,83,2014-10-02T05:15:00,2,28213414,180952
OK,92,31,618,92,2014-10-02T05:20:00,1,28213852,180952
OK,98,29,618,98,2014-10-02T05:25:00,2,28214301,180952
OK,118,24,618,118,2014-10-02T05:30:00,0,28214714,180952
OK,118,24,618,118,2014-10-02T05:35:00,0,28215163,180952
OK,53,54,618,53,2014-10-02T05:40:00,2,28215579,180952
OK,53,54,618,53,2014-10-02T05:45:00,0,28216028,180952
OK,53,54,618,53,2014-10-02T05:50:00,0,28216367,180952
OK,52,55,618,52,2014-10-02T05:55:00,1,28216807,180952
OK,52,55,618,52,2014-10-02T06:00:00,1,28217254,180952
OK,52,55,618,52,2014-10-02T06:05:00,0,28217703,180952
OK,52,55,618,52,2014-10-02T06:10:00,0,28218142,180952
OK,75,38,618,75,2014-10-02T06:15:00,2,28218591,180952
OK,84,34,618,84,2014-10-02T06:20:00,2,28219011,180952
OK,54,53,618,54,2014-10-02T06:25:00,3,28219460,180952
OK,52,55,618,52,2014-10-02T06:30:00,2,28219833,180952
OK,54,53,618,54,2014-10-02T06:35:00,0,28220282,180952
OK,54,53,618,54,2014-10-02T06:40:00,0,28220716,180952
OK,63,45,618,63,2014-10-02T06:45:00,2,28221165,180952
OK,56,51,618,56,2014-10-02T07:00:00,2,28221832,180952
OK,52,55,618,52,2014-10-02T07:05:00,2,28221978,180952
OK,33,87,618,33,2014-10-02T07:10:00,1,28222426,180952
OK,33,87,618,33,2014-10-02T07:15:00,1,28222875,180952
OK,33,87,618,33,2014-10-02T07:20:00,0,28223306,180952
OK,33,87,618,33,2014-10-02T07:25:00,0,28223741,180952
OK,33,87,618,33,2014-10-02T07:30:00,0,28224189,180952
OK,75,38,618,75,2014-10-02T07:35:00,1,28224544,180952
OK,75,38,618,75,2014-10-02T07:40:00,0,28224993,180952
OK,90,32,618,90,2014-10-02T07:50:00,2,28225764,180952
OK,86,33,618,86,2014-10-02T07:55:00,1,28226213,180952
OK,86,33,618,86,2014-10-02T08:00:00,1,28226654,180952
OK,86,33,618,86,2014-10-02T08:05:00,0,28227103,180952
OK,86,33,618,86,2014-10-02T08:10:00,0,28227518,180952
OK,79,36,618,79,2014-10-02T08:15:00,1,28227967,180952
OK,79,36,618,79,2014-10-02T08:20:00,0,28228326,180952
OK,79,36,618,79,2014-10-02T08:25:00,0,28228775,180952
OK,79,36,618,79,2014-10-02T08:30:00,0,28229185,180952
OK,73,39,618,73,2014-10-02T08:35:00,1,28229634,180952
OK,73,39,618,73,2014-10-02T08:40:00,0,28229984,180952
OK,73,39,618,73,2014-10-02T08:45:00,0,28230433,180952
OK,73,39,618,73,2014-10-02T08:50:00,0,28230799,180952
OK,73,39,618,73,2014-10-02T08:55:00,0,28231247,180952
OK,88,32,618,88,2014-10-02T09:00:00,1,28231671,180952
OK,88,32,618,88,2014-10-02T09:05:00,1,28232120,180952
OK,92,31,618,92,2014-10-02T09:15:00,3,28232462,180952
OK,116,24,618,116,2014-10-02T09:20:00,2,28232911,180952
OK,85,33,618,85,2014-10-02T09:25:00,0,28233360,180952
OK,85,33,618,85,2014-10-02T09:30:00,0,28233784,180952
OK,82,35,618,82,2014-10-02T09:35:00,1,28234233,180952
OK,82,35,618,82,2014-10-02T09:40:00,0,28234566,180952
OK,82,35,618,82,2014-10-02T09:45:00,0,28235015,180952
OK,82,35,618,82,2014-10-02T09:50:00,0,28235442,180952
OK,86,33,618,86,2014-10-02T09:55:00,1,28235891,180952
OK,86,33,618,86,2014-10-02T10:00:00,1,28236334,180952
OK,86,33,618,86,2014-10-02T10:05:00,0,28236781,180952
OK,86,33,618,86,2014-10-02T10:10:00,0,28237184,180952
OK,82,35,618,82,2014-10-02T10:15:00,2,28237631,180952
OK,82,35,618,82,2014-10-02T10:20:00,2,28238080,180952
OK,82,35,618,82,2014-10-02T10:25:00,0,28238527,180952
OK,82,35,618,82,2014-10-02T10:30:00,0,28238968,180952
OK,96,30,618,96,2014-10-02T10:35:00,1,28239417,180952
OK,96,30,618,96,2014-10-02T10:40:00,0,28239847,180952
OK,96,30,618,96,2014-10-02T10:45:00,0,28240296,180952
OK,96,30,618,96,2014-10-02T10:50:00,0,28240740,180952
OK,96,30,618,96,2014-10-02T10:55:00,1,28241189,180952
OK,96,30,618,96,2014-10-02T11:00:00,0,28241621,180952
OK,96,30,618,96,2014-10-02T11:05:00,0,28242069,180952
OK,101,28,618,101,2014-10-02T11:10:00,2,28242465,180952
OK,101,28,618,101,2014-10-02T11:15:00,2,28242914,180952
OK,89,32,618,89,2014-10-02T11:20:00,2,28243363,180952
OK,93,31,618,93,2014-10-02T11:25:00,1,28243688,180952
OK,93,31,618,93,2014-10-02T11:30:00,0,28244126,180952
OK,93,31,618,93,2014-10-02T11:35:00,0,28244555,180952
OK,93,31,618,93,2014-10-02T11:40:00,0,28245004,180952
OK,93,31,618,93,2014-10-02T11:45:00,0,28245453,180952
OK,93,31,618,93,2014-10-02T11:50:00,0,28245859,180952
OK,93,31,618,93,2014-10-02T11:55:00,0,28246308,180952
OK,100,28,618,100,2014-10-02T12:00:00,2,28246745,180952
OK,100,28,618,100,2014-10-02T12:05:00,2,28247194,180952
OK,89,32,618,89,2014-10-02T12:10:00,0,28247640,180952
OK,101,28,618,101,2014-10-02T12:15:00,1,28248070,180952
OK,101,28,618,101,2014-10-02T12:20:00,0,28248519,180952
OK,86,33,618,86,2014-10-02T12:25:00,0,28248966,180952
OK,86,33,618,86,2014-10-02T12:30:00,0,28249394,180952
OK,86,33,618,86,2014-10-02T12:35:00,0,28249838,180952
OK,91,31,618,91,2014-10-02T12:45:00,1,28250655,180952
OK,91,31,618,91,2014-10-02T12:50:00,0,28251435,180952
OK,91,31,618,91,2014-10-02T13:00:00,0,28251475,180952
OK,91,31,618,91,2014-10-02T13:20:00,0,28251515,180952
OK,91,31,618,91,2014-10-02T13:30:00,0,28251980,180952
OK,91,31,618,91,2014-10-02T13:35:00,0,28252117,180952
OK,91,31,618,91,2014-10-02T13:40:00,0,28252564,180952
OK,103,27,618,103,2014-10-02T13:45:00,0,28253006,180952
OK,103,27,618,103,2014-10-02T13:50:00,0,28253423,180952
OK,89,32,618,89,2014-10-02T13:55:00,2,28253872,180952
OK,99,29,618,99,2014-10-02T14:10:00,4,28254603,180952
OK,94,30,618,94,2014-10-02T14:15:00,4,28254726,180952
OK,93,31,618,93,2014-10-02T14:20:00,3,28255175,180952
OK,101,28,618,101,2014-10-02T14:25:00,2,28255624,180952
OK,110,26,618,110,2014-10-02T14:30:00,1,28256052,180952
OK,110,26,618,110,2014-10-02T14:35:00,0,28256501,180952
OK,93,31,618,93,2014-10-02T14:40:00,1,28256929,180952
OK,99,29,618,99,2014-10-02T14:45:00,0,28257378,180952
OK,99,29,618,99,2014-10-02T14:50:00,0,28257819,180952
OK,99,29,618,99,2014-10-02T14:55:00,0,28258267,180952
OK,99,29,618,99,2014-10-02T15:00:00,0,28258700,180952
OK,99,29,618,99,2014-10-02T15:05:00,0,28259146,180952
OK,93,31,618,93,2014-10-02T15:10:00,2,28259595,180952
OK,93,31,618,93,2014-10-02T15:15:00,2,28260042,180952
OK,93,31,618,93,2014-10-02T15:20:00,0,28260475,180952
OK,82,35,618,82,2014-10-02T15:25:00,2,28260924,180952
OK,72,40,618,72,2014-10-02T15:30:00,1,28261364,180952